Starlink 31076

operational
NORAD ID: 58736 Int'l Des: 2024-005 Owner: SPXS Country: US Constellation: starlink
LEOCIRCULAR

Über Starlink 31076

Beschreibung wird geladen...

Live-Position

3D-Globus wird geladen...

Nächste Überflüge

Höhenverlauf

Altitude vs Time

uPlot chart will show altitude changes over time

Zweizeiliger Elementsatz

1 58736U 24005J 25352.95557397 -.00003631 00000-0 -25409-3 0 9995
2 58736 43.0035 300.6037 0000881 289.9438 70.1310 15.02508103108315
Epoch: 18. Dez. 2025 • Age: 7 hours

Aktueller Status

Höhe 558.6 km
Geschwindigkeit 7.59 km/s
Subsatellitenpunkt 20.06°N, 152.24°E
Startdatum 7. Jan. 2024
Alter 1.9 years
Typ internet

Technische Details

Klassifizierung Payload
Masse 730.00 kg
Trockenmasse 700.00 kg
Gesamtmasse 730.00 kg
Länge 0.30 m
Durchmesser 4.10 m
Spannweite 29.00 m
Form Box + pan
Hersteller SPXS
Bus-Typ Starlink V2M
Phasenstatus In Orbit
Besitzer/Staat SPXS/US

Große Konstellationen

Loading constellations...